Middle River, MD

1:03 AM EST on February 26, 2017 (GMT -0500)
Martin State

Weather History for KMTN - May, 2014

Change the Weather History Date:

Thursday, May 22, 2014

  Actual Average Record
Temperature  
Mean Temperature 72 °F -  
Max Temperature 84 °F 70 °F 91 °F (2004)
Min Temperature 60 °F 55 °F 42 °F (2002)
Cooling Degree Days 7    
Growing Degree Days 22 (Base 50)    
Moisture  
Dew Point 64 °F    
Average Humidity 89    
Maximum Humidity 100    
Minimum Humidity 48    
Precipitation  
Precipitation 0.01 in - - ()
Sea Level Pressure  
Sea Level Pressure 29.85 in    
Wind  
Wind Speed 2 mph (WSW)    
Max Wind Speed 14 mph    
Max Gust Speed 23 mph    
Visibility 6 miles    
Events Rain , Thunderstorm    
Averages and records for this station are not official NWS values.
T = Trace of Precipitation, MM = Missing Value Source: NWS Daily Summary

Daily Weather History Graph

Daily Weather History Graph

Search for Another Location

Airport or City:

Trip Planner

Search our weather history database for the weather conditions in past years. The results will help you decide how hot, cold, wet, or windy it might be!

Date:

Astronomy

May. 22, 2014 Rise Set
Actual Time 5:46 AM EDT 8:18 PM EDT
Civil Twilight 5:15 AM EDT 8:49 PM EDT
Nautical Twilight 4:37 AM EDT 9:28 PM EDT
Astronomical Twilight 3:54 AM EDT 10:11 PM EDT
Moon 2:02 AM EDT (5/22) 2:05 PM EDT (5/22)
Length of Visible Light 15h 34m
Length of Day
14h 32m
Last Quarter, 37% of the Moon is Illuminated
May 22
Last Quarter
May 28
New
Jun 5
First Quarter
Jun 13
Full
Jun 19
Last Quarter

Hourly Weather History & Observations

Time (EDT) Temp. Heat Index Dew Point Humidity Pressure Visibility Wind Dir Wind Speed Gust Speed Precip Events Conditions
12:12 AM 62.6 °F - 60.8 °F 94% 29.92 in 4.0 mi Calm Calm - N/A   Scattered Clouds
12:30 AM 62.6 °F - 60.8 °F 94% 29.90 in 4.0 mi Calm Calm - N/A   Scattered Clouds
1:12 AM 60.8 °F - 59.0 °F 94% 29.91 in 2.5 mi Calm Calm - N/A   Clear
1:30 AM 60.8 °F - 59.0 °F 94% 29.91 in 2.0 mi Calm Calm - N/A   Clear
1:51 AM 60.8 °F - 59.0 °F 94% 29.90 in 4.0 mi Calm Calm - N/A   Scattered Clouds
2:12 AM 62.6 °F - 60.8 °F 94% 29.91 in 4.0 mi Calm Calm - N/A   Overcast
2:30 AM 62.6 °F - 60.8 °F 94% 29.90 in 2.5 mi Calm Calm - N/A   Overcast
2:51 AM 62.6 °F - 60.8 °F 94% 29.89 in 3.0 mi Calm Calm - N/A   Overcast
3:12 AM 62.6 °F - 60.8 °F 94% 29.88 in 4.0 mi Calm Calm - N/A   Overcast
3:30 AM 62.6 °F - 60.8 °F 94% 29.88 in 3.0 mi West 3.5 mph - N/A   Overcast
3:51 AM 62.6 °F - 60.8 °F 94% 29.87 in 3.0 mi Calm Calm - N/A   Overcast
4:12 AM 62.6 °F - 60.8 °F 94% 29.86 in 3.0 mi Calm Calm - N/A   Overcast
4:30 AM 62.6 °F - 60.8 °F 94% 29.85 in 2.0 mi Calm Calm - N/A   Overcast
4:51 AM 62.6 °F - 62.6 °F 100% 29.84 in 4.0 mi Calm Calm - N/A   Overcast
5:12 AM 64.4 °F - 62.6 °F 94% 29.84 in 4.0 mi Calm Calm - N/A   Overcast
5:27 AM 64.4 °F - 64.4 °F 100% 29.84 in 4.0 mi SW 4.6 mph - 0.01 in Rain , Thunderstorm Light Thunderstorms and Rain
5:55 AM 66.2 °F - 66.2 °F 100% 29.87 in 2.0 mi West 5.8 mph - N/A Rain , Thunderstorm Rain
6:55 AM 66.2 °F - 66.2 °F 100% 29.83 in 2.0 mi SSW 3.5 mph - N/A   Overcast
7:50 AM 68.0 °F - 68.0 °F 100% 29.84 in 2.0 mi West 3.5 mph - N/A   Overcast
8:30 AM 71.6 °F - 71.6 °F 100% 29.84 in 4.0 mi NW 5.8 mph - N/A   Scattered Clouds
8:55 AM 73.4 °F - 71.6 °F 94% 29.85 in 7.0 mi West 8.1 mph - N/A   Scattered Clouds
9:55 AM 78.8 °F - 69.8 °F 74% 29.86 in 10.0 mi West 5.8 mph - N/A   Partly Cloudy
10:55 AM 78.8 °F - 69.8 °F 74% 29.84 in 10.0 mi SSE 6.9 mph - N/A   Scattered Clouds
11:55 AM 75.2 °F - 71.6 °F 89% 29.83 in 10.0 mi SE 9.2 mph - N/A   Partly Cloudy
12:55 PM 78.8 °F - 71.6 °F 78% 29.82 in 10.0 mi ESE 6.9 mph - N/A   Scattered Clouds
1:55 PM 80.6 °F 84.6 °F 71.6 °F 74% 29.81 in 10.0 mi ESE 8.1 mph - N/A   Scattered Clouds
2:55 PM 80.6 °F 84.6 °F 71.6 °F 74% 29.79 in 10.0 mi SE 8.1 mph - N/A   Scattered Clouds
3:50 PM 80.6 °F 83.9 °F 69.8 °F 70% 29.77 in 10.0 mi Calm Calm - N/A   Mostly Cloudy
4:45 PM 84.2 °F 85.6 °F 64.4 °F 51% 29.75 in 10.0 mi SW 9.2 mph - N/A   Scattered Clouds
5:45 PM 84.2 °F 85.0 °F 62.6 °F 48% 29.76 in 10.0 mi West 13.8 mph 23.0 mph N/A   Partly Cloudy
6:45 PM 77.0 °F - 64.4 °F 65% 29.80 in 10.0 mi ENE 4.6 mph - N/A   Mostly Cloudy
8:55 PM 68.0 °F - 66.2 °F 94% 29.82 in 10.0 mi Calm Calm - N/A   Mostly Cloudy
9:55 PM 66.2 °F - 66.2 °F 100% 29.85 in 10.0 mi Calm Calm - N/A   Scattered Clouds
10:12 PM 64.4 °F - 64.4 °F 100% 29.86 in 7.0 mi Calm Calm - N/A   Scattered Clouds
10:33 PM 64.4 °F - 64.4 °F 100% 29.87 in 7.0 mi WNW 3.5 mph - N/A   Clear
10:54 PM 64.4 °F - 64.4 °F 100% 29.87 in 7.0 mi Calm Calm - N/A   Clear
11:12 PM 62.6 °F - 62.6 °F 100% 29.88 in 7.0 mi Calm Calm - N/A   Clear
11:33 PM 62.6 °F - 60.8 °F 94% 29.89 in 10.0 mi West 10.4 mph - N/A   Clear
11:54 PM 62.6 °F - 57.2 °F 82% 29.89 in 10.0 mi WNW 6.9 mph - N/A   Clear